PBD6808 UWKS-UUEE

Flight info

Callsign PBD6808
Flight time N/A
Altitude 34000
Route IRGOS1C IRGOS L158 DIMGI DIMGI3F
Aircraft B738/M-SDE2E3FGHIRWXY/LB1

Departure

Time 2026-05-01 12:14
Airport Cheboksary Airport (UWKS)

Arrival

Time N/A
Airport Sheremetyevo International Airport (UUEE)
Time Latitude Longitude Altitude Speed Heading
2026-05-01 12:01 56.08319 47.32065 569 ft 0 kts 262°
2026-05-01 12:10 56.08318 47.32052 596 ft 3 kts 264°
2026-05-01 12:11 56.08340 47.32009 575 ft 3 kts
2026-05-01 12:11 56.08356 47.32028 573 ft 3 kts 52°
2026-05-01 12:11 56.08361 47.32059 569 ft 3 kts 81°
2026-05-01 12:12 56.08367 47.32128 569 ft 8 kts 81°
2026-05-01 12:12 56.08389 47.32211 569 ft 8 kts 45°
2026-05-01 12:12 56.08425 47.32277 571 ft 7 kts 52°
2026-05-01 12:12 56.08455 47.32349 569 ft 7 kts 54°
2026-05-01 12:13 56.08535 47.32546 569 ft 32 kts 54°
2026-05-01 12:13 56.08664 47.32865 573 ft 31 kts 54°
2026-05-01 12:13 56.08724 47.33071 569 ft 15 kts 71°
2026-05-01 12:13 56.08789 47.33414 568 ft 56 kts 71°
2026-05-01 12:14 56.08982 47.34466 555 ft 119 kts 72°
2026-05-01 12:14 56.09290 47.36144 542 ft 167 kts 72°
2026-05-01 12:14 56.09655 47.38217 1054 ft 168 kts 71°
2026-05-01 12:14 56.09982 47.40256 1722 ft 181 kts 76°
2026-05-01 12:15 56.09882 47.42706 1823 ft 218 kts 117°
2026-05-01 12:15 56.08673 47.44456 2178 ft 238 kts 167°
2026-05-01 12:15 56.07094 47.44160 3026 ft 227 kts 211°
2026-05-01 12:15 56.06052 47.42224 3924 ft 210 kts 245°
2026-05-01 12:16 56.05694 47.39822 4597 ft 205 kts 275°
2026-05-01 12:16 56.05967 47.37226 4935 ft 218 kts 288°
2026-05-01 12:16 56.06425 47.34536 5249 ft 238 kts 288°
2026-05-01 12:16 56.06828 47.31643 5536 ft 256 kts 283°
2026-05-01 12:17 56.07167 47.28458 6102 ft 264 kts 281°
2026-05-01 12:17 56.07484 47.25202 6792 ft 267 kts 277°
2026-05-01 12:17 56.07172 47.21964 7458 ft 270 kts 242°
2026-05-01 12:17 56.06102 47.19211 8233 ft 270 kts 234°
2026-05-01 12:18 56.04977 47.16498 8928 ft 273 kts 236°
2026-05-01 12:18 56.03927 47.13656 9678 ft 275 kts 239°
2026-05-01 12:18 56.02948 47.10765 10372 ft 278 kts 239°
2026-05-01 12:18 56.01909 47.07703 10592 ft 299 kts 239°
2026-05-01 12:19 56.00772 47.04429 10767 ft 320 kts 238°
2026-05-01 12:19 55.99545 47.00973 10934 ft 340 kts 238°
2026-05-01 12:19 55.98235 46.97354 11253 ft 352 kts 237°
2026-05-01 12:19 55.96881 46.93658 11804 ft 358 kts 237°
2026-05-01 12:20 55.95510 46.89943 12500 ft 360 kts 237°
2026-05-01 12:20 55.94124 46.86202 13221 ft 363 kts 237°
2026-05-01 12:20 55.92725 46.82437 13886 ft 366 kts 236°
2026-05-01 12:20 55.91501 46.79151 14412 ft 370 kts 236°
2026-05-01 12:21 55.90034 46.75219 14948 ft 376 kts 236°
2026-05-01 12:21 55.88736 46.71745 15551 ft 378 kts 236°
2026-05-01 12:21 55.87346 46.68035 16186 ft 380 kts 236°
2026-05-01 12:21 55.85873 46.64103 16794 ft 384 kts 235°
2026-05-01 12:22 55.84386 46.60137 17406 ft 388 kts 235°
2026-05-01 12:22 55.82877 46.56121 17997 ft 392 kts 235°
2026-05-01 12:22 55.81351 46.52073 18567 ft 396 kts 235°
2026-05-01 12:22 55.79904 46.47903 19074 ft 400 kts 243°
2026-05-01 12:23 55.79336 46.43063 19556 ft 408 kts 274°
2026-05-01 12:23 55.79990 46.38218 20192 ft 410 kts 287°
2026-05-01 12:23 55.80661 46.33526 20644 ft 411 kts 272°
2026-05-01 12:23 55.80311 46.28510 21054 ft 411 kts 255°
2026-05-01 12:24 55.79982 46.23446 21526 ft 416 kts 266°
2026-05-01 12:24 55.80044 46.18277 22000 ft 421 kts 271°
2026-05-01 12:24 55.80260 46.13062 22467 ft 424 kts 272°
2026-05-01 12:24 55.80515 46.07828 22928 ft 427 kts 272°
2026-05-01 12:25 55.80757 46.02547 23394 ft 429 kts 272°
2026-05-01 12:25 55.81153 45.91888 24166 ft 435 kts 271°
2026-05-01 12:25 55.81316 45.86580 24511 ft 437 kts 271°
2026-05-01 12:26 55.81471 45.81166 24857 ft 440 kts 271°
2026-05-01 12:26 55.81770 45.70251 25520 ft 445 kts 271°
2026-05-01 12:26 55.81919 45.64741 25843 ft 447 kts 271°
2026-05-01 12:27 55.82068 45.59211 26161 ft 450 kts 271°